Regional Weather Roundup
Issued by NWS Columbia, SC

Home | Current Version | Previous Version | Text Only | Print | Product List | Glossary On
Versions: 1 2 3 4 5 6 7 8 9 10 11 12 13 14 15 16 17 18 19 20 21 22 23 24 25 26 27 28 29 30 31 32 33 34 35 36 37 38 39 40 41 42 43 44 45 46 47 48 49 50
000
ASUS42 KCAE 291710
RWRCAE
REGIONAL WEATHER ROUNDUP
NATIONAL WEATHER SERVICE COLUMBIA SC
100 PM EDT FRI JUL 29 2016

NOTE: "FAIR" INDICATES FEW OR NO CLOUDS BELOW 12,000 FEET WITH NO
SIGNIFICANT WEATHER AND/OR OBSTRUCTIONS TO VISIBILITY.

NOT ALL STATIONS ARE QUALITY CONTROLLED BY THE NATIONAL
WEATHER SERVICE. USE DATA WITH CAUTION...ESPECIALLY
DEWPOINT OBSERVATIONS.

SCZ001>056-GAZ040-063>065-077-291800-
...UPSTATE SOUTH CAROLINA...

CITY           SKY/WX    TMP DP  RH WIND       PRES   REMARKS
ANDERSON       MOSUNNY   91  68  46 SW14      29.99F HX  95
LIBERTY        MOSUNNY   88  70  54 SW3       29.99F
SPARTANBURG    SUNNY     88  64  45 W7        29.98F
CLEMSON        MOSUNNY   92  68  45 NW8       30.00F HX  96
GREENVILLE     PTSUNNY   91  65  41 MISG      30.00F
GREENWOOD      MOSUNNY   93  69  45 W9        30.00S HX  98
GREER          MOSUNNY   89  68  49 VRB5      29.99S
ROCK HILL      MOSUNNY   90  67  46 NW8       29.97F
CHESTER        MOSUNNY   88  64  45 W5        29.98S
LAURENS        MOSUNNY   90  68  48 W9        29.98F


...CENTRAL SOUTH CAROLINA...

CITY           SKY/WX    TMP DP  RH WIND       PRES   REMARKS
COLUMBIA APT   MOSUNNY   95  69  42 NW10G20   29.94F HX 100
COLUMBIA OWENS SUNNY     94  69  44 NW12G21   29.96S HX  99
MCENTIRE ANGB  MOSUNNY   93  69  44 SW9G22    29.95S HX  98
ORANGEBURG     MOSUNNY   94  71  47 W15       29.97S HX 101
SUMTER SHAW    MOSUNNY   92  70  47 W10G17    29.92S HX  98
NEWBERRY       MOSUNNY   90  72  55 W9        30.00F HX  96
AIKEN          FAIR      91  68  46 SW13G24   30.01F HX  95
MANNING        FAIR      91  70  49 SW13      29.95S HX  97
LANCASTER      MOSUNNY   90  66  45 S6        29.96F
WINNSBORO      SUNNY     91  68  46 W9G17     29.97S HX  95


...EASTERN AND COASTAL SOUTH CAROLINA...

CITY           SKY/WX    TMP DP  RH WIND       PRES   REMARKS
N MYRTLE BCH   MOSUNNY   93  72  50 W10       29.91F HX 101
CONWAY         FAIR      90  72  55 W7        29.93F HAZE    HX  96
MARION           N/A     90  72  55 W14       29.93S HX  96
HARTSVILLE     PTSUNNY   90  70  51 W3        29.94S HX  95
FLORENCE       PTSUNNY   89  72  56 NW8       29.93F HX  96
DARLINGTON     PTSUNNY   90  73  57 W3        29.94S HX  98
CHARLESTON APT MOSUNNY   95  68  41 W16G23    29.96F HX  99
MOUNT PLEASANT FAIR      93  70  46 W15       29.96S HX  99
WALTERBORO     SUNNY     95  66  38 SW13      29.98S HX  98
BEAUFORT       MOSUNNY   97  69  40 SW16G23   29.98F HX 103


...EASTERN GEORGIA...

CITY           SKY/WX    TMP DP  RH WIND       PRES   REMARKS
AUGUSTA BUSH F MOSUNNY   97  67  37 NW13G22   29.97S HX 101
AUGUSTA DANIEL MOSUNNY   94  68  42 W8G18     30.00S HX  98
WASHINGTON     FAIR      93  73  52 W7        30.01S HX 102
CLAXTON        FAIR      95  71  46 SW9G16    30.00F HAZE    HX 102
STATESBORO     MOSUNNY   93  74  53 W8        30.00F HX 103
SAVANNAH       MOSUNNY   95  70  44 W6        29.99F HX 101


...SOUTHERN NORTH CAROLINA...

CITY           SKY/WX    TMP DP  RH WIND       PRES   REMARKS
CHARLOTTE      MOSUNNY   91  66  43 W8        29.97F
MONROE         MOSUNNY   91  65  41 W9        29.95F
ROCKINGHAM     MOSUNNY   90  71  53 W8        29.94S HX  96
RUTHERFORDTON    N/A     87  68  52 W5        30.00F
ASHEVILLE      SUNNY     84  63  49 N10       30.07F

$$



USA.gov is the U.S. government's official web portal to all federal, state and local government web resources and services.